Location: Cabeza Gorda
(40.0667°N, 4.9667°W)
Time: 18:44:18
(UTC+00:00)

CZ-4 R/B - Pass Details

Date: 15 January 2026
Orbit: 676 x 743 km, 98.7° (Epoch: 10 February)

Event Time Altitude Azimuth Distance (km) Brightness Sun altitude
Rises 05:55:07 0° 9° (N) 3,098 7.1 -19.7°
Reaches altitude 10° 05:57:23 10° 5° (N) 2,186 6.3 -19.3°
Maximum altitude 06:02:05 58° 287° (WNW) 838 3.8 -18.4°
Drops below altitude 10° 06:06:50 10° 209° (SSW) 2,213 6.2 -17.5°
Sets 06:09:08 0° 206° (SSW) 3,139 7.1 -17.1°
